• Join FlightAware (Why Join?)
  • Login
  • US Flag 
09:04AM EDT


 

Airport Tracker/Info


-or-


 

Live Flight TrackerFlight Track Log ✈ N5352K ✈ 15-Nov-2013 ✈ KOPF - KPHK

Flight Track Log - Related Links

Times and Time Zones

All times are in EST time to prevent confusion due to time zone crossing. See the N5352K flight status page for this flight to view local times or setup timezone preferences in your user account.

Time Position Orientation Groundspeed Altitude Reporting Facility
EST Latitude Longitude Course Direction KTS MPH feet Rate Location/Type
11:21AM 26.3808 -80.7803 10° North 116 133 1,900  Level Miami Center
11:22AM 26.4081 -80.7744 11° North 101 116 2,000 60 Climbing Miami Center
11:23AM 26.4375 -80.7683 11° North 101 116 2,100  Climbing Miami Center
11:24AM 26.4647 -80.7600 15° North 101 116 2,100 -60 Level Miami Center
11:25AM 26.4942 -80.7539 11° North 101 116 2,000 -60 Descending Miami Center
11:26AM 26.5217 -80.7456 15° North 107 123 2,000  Level Miami Center
11:27AM 26.2443 -80.4368 10° North  Level Estimated
11:27AM 26.5508 -80.7397 10° North 107 123 2,000  Level Miami Center
11:28AM 26.5803 -80.7336 11° North 107 123 2,000  Level Miami Center
11:29AM 26.6078 -80.7275 11° North 107 123 2,100  Climbing Miami Center
11:30AM 26.6328 -80.7214 12° North 107 123 2,000 1,200 Descending Miami Center
11:31AM 26.6603 -80.7178 North 107 123 4,500 1,200 Climbing Miami Center
11:32AM 26.6853 -80.7117 12° North 107 123 4,500 -120 Level Miami Center
11:34AM 26.7242 -80.6952 10° North  Level FlightAware Approximate
11:41AM 26.7833 -80.6833 10° North  Level FlightAware Approximate
11:42AM 26.7850 -80.6934 10° North  Level Estimated
11:43AM 26.7850 -80.6934 10° North  Level Estimated
11:44AM 26.7850 -80.6934 10° North  Level Estimated
11:45AM 26.7850 -80.6934 10° North  Level Estimated
11:46AM 26.7850 -80.6934 10° North  Level Estimated
11:47AM 26.7850 -80.6934 10° North  Level Estimated
11:48AM 26.7850 -80.6934 10° North  Level Estimated
11:49AM 26.7850 -80.6934 10° North  Level Estimated
11:50AM 26.7850 -80.6934 10° North  Level Estimated
11:51AM 26.7850 -80.6934 10° North  Level Estimated
11:52AM 26.7850 -80.6934 10° North  Level Estimated
11:55AM 26.4670 -80.5710 10° North 94 108 1,900  Level FlightAware
11:55AM 26.4580 -80.5650 149° Southeast 94 108 1,900  Level FlightAware
11:56AM 26.4350 -80.5520 153° Southeast 83 96 1,900  Level FlightAware
11:57AM 26.4230 -80.5440 149° Southeast 91 105 1,900  Level FlightAware
11:57AM 26.4080 -80.5350 152° Southeast 83 96 1,900  Level FlightAware
11:58AM 26.3980 -80.5270 144° Southeast 81 93 1,900  Level FlightAware
11:58AM 26.3870 -80.5180 144° Southeast 87 100 1,900  Level FlightAware
11:59AM 26.3710 -80.5050 144° Southeast 93 107 1,900  Level FlightAware
12:00PM 26.3610 -80.5000 156° South 99 114 1,900  Level FlightAware
12:00PM 26.3420 -80.5060 196° South 110 127 1,900  Level FlightAware
12:01PM 26.3260 -80.5120 199° South 101 116 1,900  Level FlightAware
12:01PM 26.3080 -80.5180 197° South 98 113 1,900  Level FlightAware
12:02PM 26.2880 -80.5220 190° South 96 110 1,900 -120 Level FlightAware
12:03PM 26.2670 -80.5270 192° South 104 120 1,800 -120 Descending FlightAware
12:03PM 26.2490 -80.5310 191° South 102 117 1,800 60 Level FlightAware
12:04PM 26.2310 -80.5360 194° South 104 120 1,900 60 Climbing FlightAware
12:05PM 26.2130 -80.5410 194° South 103 119 1,900 -120 Level FlightAware
12:05PM 26.1970 -80.5440 190° South 99 114 1,800  Descending FlightAware
12:06PM 26.1820 -80.5460 187° South 96 110 1,900  Climbing FlightAware
12:06PM 26.1630 -80.5450 177° South 102 117 1,800  Descending FlightAware
12:07PM 26.1490 -80.5430 173° South 99 114 1,900 60 Climbing FlightAware
12:07PM 26.1390 -80.5410 170° South 101 116 1,900 -120 Level FlightAware
12:08PM 26.1230 -80.5370 167° South 103 119 1,800 -120 Descending FlightAware
12:08PM 26.1130 -80.5360 175° South 99 114 1,800  Level FlightAware
12:09PM 26.0960 -80.5360 180° South 103 119 1,800  Level FlightAware
12:10PM 26.0750 -80.5290 163° South 94 108 1,800 60 Level FlightAware
12:10PM 26.0630 -80.5120 128° Southeast 89 102 1,900 60 Climbing FlightAware
12:11PM 26.0520 -80.4940 124° Southeast 87 100 1,900 -120 Level FlightAware
12:12PM 26.0440 -80.4840 132° Southeast 92 106 1,800  Descending FlightAware
12:12PM 26.0350 -80.4690 124° Southeast 86 99 1,900 60 Climbing FlightAware
12:13PM 26.0280 -80.4530 116° Southeast 89 102 1,900 60 Level FlightAware
12:14PM 26.0160 -80.4400 136° Southeast 94 108 2,000  Climbing FlightAware
12:14PM 26.0050 -80.4340 154° Southeast 97 112 1,900 -120 Descending FlightAware
12:15PM 25.9910 -80.4250 150° Southeast 96 110 1,900  Level FlightAware
12:15PM 25.9780 -80.4160 148° Southeast 94 108 1,900  Level FlightAware
12:16PM 25.9680 -80.4090 148° Southeast 96 110 1,900 -120 Level FlightAware
12:16PM 25.9560 -80.4000 146° Southeast 98 113 1,800 -120 Descending FlightAware
12:17PM 25.9420 -80.3900 147° Southeast 90 104 1,800 -240 Level FlightAware
12:18PM 25.9240 -80.3760 145° Southeast 83 96 1,500 -480 Descending FlightAware
12:18PM 25.9150 -80.3620 126° Southeast 79 91 1,100 -480 Descending FlightAware
12:19PM 25.9120 -80.3490 104° East 75 86 900 -420 Descending FlightAware
12:20PM 25.9100 -80.3360 100° East 77 89 700 -420 Descending FlightAware
12:20PM 25.9110 -80.3250 84° East 70 81 500 -420 Descending FlightAware